Flag for Moldova Weather past 2 weeks in Cahul, Moldova

Now
35 °F

Passing clouds.


Feels Like: 32 °F
Forecast: 40 / 53 °F
Wind: 3 mph from Southwest

Location: Galati

Current Time: Dec 22, 2014 at 2:50:32 AM

Latest Report: Dec 22, 2014 at 2:00 AM


Visibility: 13 mi

Pressure: 30.27 "Hg

Humidity: 87%

Dew point: 31 °F

Location of CahulLocation

Historic Weather in Cahul — Graph

°F

Cahul temperature yesterday

Maximum temperature yesterday: 43 °F (at 3:00 PM)
Minimum temperature yesterday: 34 °F (at 9:00 AM)
Average temperature yesterday: 38 °F

Past Weeks' High & Low Weather Summary

 TemperatureHumidityPressure
High46 °F (Dec 13, 3:00 PM)100% (Dec 7, 2:00 AM)30.31 "Hg (Dec 7, 2:00 AM)
Low29 °F (Dec 15, 7:00 AM)72% (Dec 13, 3:00 PM)29.86 "Hg (Dec 17, 6:00 PM)
Average35 °F98%30.12 "Hg
* Reported Dec 7 2:00 AM — Dec 22 2:00 AM, Cahul, Weather by CustomWeather, © 2014

Note: Actual official high and low records may vary slightly from our data, if they occured in-between our weather recording intervals... More about our weather records

Advertising

Cahul weather history for previous 24 hours

 ConditionsComfort  
Time TempWeatherWind HumidityBarometerVisibility
2:00 AM
Dec 22
35 °FPassing clouds.3 mph87%30.27 "Hg12 mi
1:00 AM34 °FPassing clouds.3 mph87%30.27 "Hg12 mi
12:00 AM35 °FPassing clouds.1 mph84%30.26 "Hg12 mi
11:00 PM
Dec 21
36 °FPassing clouds.2 mph81%30.24 "Hg12 mi
10:00 PM36 °FOvercast.2 mph85%30.22 "Hg12 mi
9:00 PM35 °FOvercast.2 mph91%30.19 "Hg12 mi
8:00 PM36 °FPassing clouds.2 mph89%30.16 "Hg12 mi
7:00 PM37 °FOvercast.2 mph86%30.12 "Hg12 mi
6:00 PM38 °FOvercast.3 mph85%30.10 "Hg12 mi
5:00 PM40 °FOvercast.7 mph81%30.08 "Hg12 mi
4:00 PM42 °FOvercast.3 mph80%30.03 "Hg12 mi
3:00 PM43 °FOvercast.5 mph78%30.02 "Hg12 mi
2:00 PM42 °FOvercast.3 mph81%29.99 "Hg6 mi
1:00 PM42 °FOvercast.2 mph86%29.99 "Hg6 mi
12:00 PM42 °FOvercast.1 mph83%29.98 "Hg6 mi
11:00 AM34 °FFog.2 mph100%30.00 "Hg1 mi
10:00 AM35 °FFog.2 mph100%29.97 "Hg1 mi
9:00 AM34 °FFog.3 mph100%29.97 "Hg0 mi
8:00 AM36 °FFog.3 mph100%29.98 "Hg1 mi
7:00 AM37 °FFog.2 mph100%29.98 "Hg1 mi
6:00 AM37 °FFog.2 mph100%29.98 "Hg1 mi
5:00 AM37 °FFog.2 mph100%29.99 "Hg1 mi
4:00 AM36 °FFog.1 mph100%30.01 "Hg1 mi
3:00 AM37 °FFog.2 mph100%30.05 "Hg1 mi
2:00 AM37 °FFog.1 mph100%30.06 "Hg1 mi
Weather by CustomWeather, © 2014

See weather overviewHow to use our weather pages